Location: Joplin, MO
(37.0842°N, 94.5133°W)
Time: 11:32:43
(UTC+02:00)

Vanguard 3 - Pass Details

Date: 04 April 2023
Orbit: 507 x 3246 km, 33.4° (Epoch: 01 June)

Event Time Altitude Azimuth Distance (km) Brightness Sun altitude
Rises 13:03:00 0° 280° (W) 6,701 - -11.9°
Exits shadow 13:05:51 - 278° (W) 6,146 11.0 -11.3°
Reaches altitude 10° 13:07:10 10° 278° (W) 5,893 10.9 -11.1°
Maximum altitude 13:26:19 65° 202° (SSW) 3,414 10.1 -7.4°
Drops below altitude 10° 13:43:17 10° 126° (SE) 5,292 12.0 -4.1°
Sets 13:46:49 0° 123° (ESE) 6,016 12.4 -3.4°
